Flag for Germany Weather past 2 weeks in Gronau (Westfalen), North Rhine-Westphalia, Germany

Now
54 °F

Overcast.


Feels Like: 53 °F
Forecast: 42 / 54 °F
Wind: 5 mph from Southwest

Location: Twenthe

Current Time: Oct 21, 2014 at 3:10:54 AM

Latest Report: Oct 21, 2014 at 2:00 AM


Visibility: 14 mi

Pressure: 29.85 "Hg

Humidity: 88%

Dew point: 51 °F

Location of Gronau (Westfalen)Location

Historic Weather in Gronau (Westfalen) — Graph

°F

Gronau (Westfalen) temperature yesterday

Maximum temperature yesterday: 61 °F (at 1:00 PM)
Minimum temperature yesterday: 55 °F (at 11:00 PM)
Average temperature yesterday: 58 °F

Past Weeks' High & Low Weather Summary

 TemperatureHumidityPressure
High72 °F (Oct 19, 2:00 PM)100% (Oct 6, 2:00 AM)30.08 "Hg (Oct 6, 2:00 AM)
Low45 °F (Oct 11, 7:00 AM)65% (Oct 14, 12:00 PM)29.47 "Hg (Oct 7, 11:00 AM)
Average57 °F86%29.81 "Hg
* Reported Oct 6 2:00 AM — Oct 21 2:00 AM, Gronau (Westfalen), Weather by CustomWeather, © 2014

Note: Actual official high and low records may vary slightly from our data, if they occured in-between our weather recording intervals... More about our weather records

Advertising

Gronau (Westfalen) weather history for previous 24 hours

 ConditionsComfort  
Time TempWeatherWind HumidityBarometerVisibility
2:00 AM
Oct 21
54 °FOvercast.5 mph88%29.85 "Hg14 mi
1:00 AM53 °FOvercast.3 mph90%29.87 "Hg14 mi
12:00 AM53 °FPassing clouds.5 mph89%29.89 "Hg16 mi
11:00 PM
Oct 20
55 °FPassing clouds.5 mph84%29.90 "Hg22 mi
10:00 PM56 °FOvercast.5 mph83%29.92 "Hg19 mi
9:00 PM56 °FRain showers. Passing clouds.6 mph81%29.93 "Hg19 mi
8:00 PM57 °FPassing clouds.3 mph80%29.93 "Hg22 mi
7:00 PM58 °FOvercast.5 mph79%29.93 "Hg25 mi
6:00 PM58 °FScattered clouds.5 mph81%29.93 "Hg19 mi
5:00 PM59 °FScattered clouds.6 mph80%29.94 "Hg18 mi
4:00 PM61 °FPassing clouds.8 mph73%29.95 "Hg19 mi
3:00 PM61 °FPassing clouds.8 mph77%29.96 "Hg18 mi
2:00 PM61 °FOvercast.8 mph78%29.97 "Hg16 mi
1:00 PM61 °FPartly sunny.7 mph79%29.98 "Hg14 mi
12:00 PM60 °FOvercast.7 mph83%29.98 "Hg12 mi
11:00 AM58 °FOvercast.8 mph87%29.97 "Hg9 mi
10:00 AM57 °FLow clouds.6 mph91%29.97 "Hg8 mi
9:00 AM56 °FOvercast.6 mph92%29.96 "Hg7 mi
8:00 AM56 °FOvercast.6 mph93%29.96 "Hg7 mi
7:00 AM57 °FOvercast.7 mph88%29.94 "Hg8 mi
5:00 AM56 °FPassing clouds.6 mph89%29.95 "Hg7 mi
4:00 AM58 °FOvercast.6 mph87%29.95 "Hg8 mi
3:00 AM58 °FOvercast.7 mph83%29.96 "Hg9 mi
Weather by CustomWeather, © 2014

See weather overviewHow to use our weather pages